USA 169 (MILSTAR-2 4) 1 27711U 03012A 21061.78376619 -.00000199 00000-0 00000-0 0 9991 2 27711 9.4299 43.1951 0002740 303.6743 248.1920 1.00273056 13571 TITAN 4 CENTAUR R/B 1 27712U 03012B 21061.84876539 -.00000291 00000-0 00000-0 0 9998 2 27712 8.9161 32.5959 0021477 246.5810 113.2640 1.00590772 6358